"Period start","avg(HW err(1)/warn(2) (#))","avg(Visibility (m))","avg(Weather code (#))","avg(Precip intensity (mm/h))","min(HW err(1)/warn(2) (#))","max(HW err(1)/warn(2) (#))","std(HW err(1)/warn(2) (#))","med(HW err(1)/warn(2) (#))","min(Visibility (m))","max(Visibility (m))","std(Visibility (m))","med(Visibility (m))","min(Weather code (#))","max(Weather code (#))","std(Weather code (#))","med(Weather code (#))","min(Precip intensity (mm/h))","max(Precip intensity (mm/h))","std(Precip intensity (mm/h))","med(Precip intensity (mm/h))"
2016-06-03 00:00:00,2,40277,0,0.00,2,2,0,2,32245,50000,5817,40210,0,0,0,0,0.00,0.00,0.00,0.00
2016-06-03 00:10:00,2,40804,0,0.00,2,2,0,2,26506,50000,6932,41978,0,0,0,0,0.00,0.00,0.00,0.00
2016-06-03 00:20:00,2,46116,0,0.00,2,2,0,2,38453,50000,4462,48720,0,0,0,0,0.00,0.00,0.00,0.00
2016-06-03 00:30:00,2,38223,0,0.00,2,2,0,2,20853,50000,10010,37794,0,0,0,0,0.00,0.00,0.00,0.00
2016-06-03 00:40:00,2,39470,0,0.00,2,2,0,2,29996,50000,7226,40065,0,0,0,0,0.00,0.00,0.00,0.00
2016-06-03 00:50:00,2,37484,0,0.00,2,2,0,2,27306,50000,7742,36933,0,0,0,0,0.00,0.00,0.00,0.00
2016-06-03 01:00:00,2,31561,0,0.00,2,2,0,2,19449,50000,9784,32494,0,0,0,0,0.00,0.00,0.00,0.00
2016-06-03 01:10:00,2,38700,0,0.00,2,2,0,2,23023,50000,8485,40624,0,0,0,0,0.00,0.00,0.00,0.00
2016-06-03 01:20:00,2,46228,0,0.00,2,2,0,2,38228,50000,3389,47085,0,0,0,0,0.00,0.00,0.00,0.00
2016-06-03 01:30:00,2,33953,0,0.00,2,2,0,2,24229,50000,7012,32898,0,0,0,0,0.00,0.00,0.00,0.00
2016-06-03 01:40:00,2,37306,0,0.00,2,2,0,2,28100,48654,6218,37284,0,0,0,0,0.00,0.00,0.00,0.00
2016-06-03 01:50:00,2,34779,0,0.00,2,2,0,2,22553,44611,9024,37070,0,0,0,0,0.00,0.00,0.00,0.00
2016-06-03 02:00:00,2,42221,0,0.00,2,2,0,2,30755,50000,7754,43210,0,0,0,0,0.00,0.00,0.00,0.00
2016-06-03 02:10:00,2,35696,0,0.00,2,2,0,2,30346,50000,5626,35566,0,0,0,0,0.00,0.00,0.00,0.00
2016-06-03 02:20:00,2,39248,0,0.00,2,2,0,2,31712,49909,6489,37240,0,0,0,0,0.00,0.00,0.00,0.00
2016-06-03 02:30:00,2,39188,0,0.00,2,2,0,2,31312,50000,4874,38004,0,0,0,0,0.00,0.00,0.00,0.00
2016-06-03 02:40:00,2,42337,0,0.00,2,2,0,2,27100,50000,6643,43992,0,0,0,0,0.00,0.00,0.00,0.00
2016-06-03 02:50:00,2,46175,0,0.00,2,2,0,2,32580,50000,5410,48844,0,0,0,0,0.00,0.00,0.00,0.00
2016-06-03 03:00:00,2,40594,0,0.00,2,2,0,2,28291,50000,6953,43106,0,0,0,0,0.00,0.00,0.00,0.00
2016-06-03 03:10:00,2,46020,0,0.00,2,2,0,2,40394,50000,3214,46174,0,0,0,0,0.00,0.00,0.00,0.00
2016-06-03 03:20:00,2,41228,0,0.00,2,2,0,2,24262,50000,8078,40538,0,0,0,0,0.00,0.00,0.00,0.00
2016-06-03 03:30:00,2,35132,0,0.00,2,2,0,2,28285,49896,6193,32838,0,0,0,0,0.00,0.00,0.00,0.00
2016-06-03 03:40:00,2,47606,0,0.00,2,2,0,2,41160,50000,3313,49657,0,0,0,0,0.00,0.00,0.00,0.00
2016-06-03 03:50:00,2,45011,0,0.00,2,2,0,2,35986,50000,4388,45296,0,0,0,0,0.00,0.00,0.00,0.00
2016-06-03 04:00:00,2,40224,0,0.00,2,2,0,2,31768,50000,5256,39345,0,0,0,0,0.00,0.00,0.00,0.00
2016-06-03 04:10:00,2,42898,0,0.00,2,2,0,2,34724,50000,5688,41540,0,0,0,0,0.00,0.00,0.00,0.00
2016-06-03 04:20:00,2,47883,0,0.00,2,2,0,2,43429,50000,2676,49998,0,0,0,0,0.00,0.00,0.00,0.00
2016-06-03 04:30:00,2,44304,0,0.00,2,2,0,2,31221,50000,5678,46104,0,0,0,0,0.00,0.00,0.00,0.00
2016-06-03 04:40:00,1,45072,0,0.00,0,2,1,0,33337,50000,5214,47362,0,0,0,0,0.00,0.00,0.00,0.00
2016-06-03 04:50:00,0,46789,0,0.00,0,0,0,0,38847,50000,3485,47871,0,0,0,0,0.00,0.00,0.00,0.00
2016-06-03 05:00:00,0,45297,0,0.00,0,0,0,0,40496,50000,3026,45252,0,0,0,0,0.00,0.00,0.00,0.00
2016-06-03 05:10:00,0,48924,0,0.00,0,0,0,0,41935,50000,2464,50000,0,0,0,0,0.00,0.00,0.00,0.00
2016-06-03 05:20:00,0,46465,0,0.00,0,0,0,0,32021,50000,5412,50000,0,0,0,0,0.00,0.00,0.00,0.00
2016-06-03 05:30:00,0,49655,0,0.00,0,0,0,0,46898,50000,975,50000,0,0,0,0,0.00,0.00,0.00,0.00
2016-06-03 05:40:00,0,46901,0,0.00,0,0,0,0,40314,50000,3417,48240,0,0,0,0,0.00,0.00,0.00,0.00
2016-06-03 05:50:00,0,47265,0,0.00,0,0,0,0,35425,50000,4449,49760,0,0,0,0,0.00,0.00,0.00,0.00
2016-06-03 06:00:00,0,48608,0,0.00,0,0,0,0,42859,50000,2688,50000,0,0,0,0,0.00,0.00,0.00,0.00
2016-06-03 06:10:00,0,46696,0,0.00,0,0,0,0,38028,50000,4065,48675,0,0,0,0,0.00,0.00,0.00,0.00
2016-06-03 06:20:00,0,49777,0,0.00,0,0,0,0,47771,50000,669,50000,0,0,0,0,0.00,0.00,0.00,0.00
2016-06-03 06:30:00,0,49313,0,0.00,0,0,0,0,46547,50000,1106,50000,0,0,0,0,0.00,0.00,0.00,0.00
2016-06-03 06:40:00,0,49502,0,0.00,0,0,0,0,48026,50000,750,50000,0,0,0,0,0.00,0.00,0.00,0.00
2016-06-03 06:50:00,0,50000,0,0.00,0,0,0,0,50000,50000,0,50000,0,0,0,0,0.00,0.00,0.00,0.00
2016-06-03 07:00:00,0,49585,0,0.00,0,0,0,0,47817,50000,832,50000,0,0,0,0,0.00,0.00,0.00,0.00
2016-06-03 07:10:00,0,48782,0,0.00,0,0,0,0,44269,50000,1837,50000,0,0,0,0,0.00,0.00,0.00,0.00
2016-06-03 07:20:00,0,48518,0,0.00,0,0,0,0,45422,50000,1869,49732,0,0,0,0,0.00,0.00,0.00,0.00
2016-06-03 07:30:00,0,49020,0,0.00,0,0,0,0,45167,50000,1522,50000,0,0,0,0,0.00,0.00,0.00,0.00
2016-06-03 07:40:00,0,48973,0,0.00,0,0,0,0,46295,50000,1517,49944,0,0,0,0,0.00,0.00,0.00,0.00
2016-06-03 07:50:00,2,49636,0,0.00,0,2,1,2,47646,50000,766,50000,0,0,0,0,0.00,0.00,0.00,0.00
2016-06-03 08:00:00,2,49195,0,0.00,0,2,1,2,43544,50000,1930,50000,0,0,0,0,0.00,0.00,0.00,0.00
2016-06-03 08:10:00,0,47176,0,0.00,0,2,1,0,36662,50000,3891,48664,0,0,0,0,0.00,0.00,0.00,0.00
2016-06-03 08:20:00,0,47202,0,0.00,0,0,0,0,43320,50000,2595,47416,0,0,0,0,0.00,0.00,0.00,0.00
2016-06-03 08:30:00,0,49888,0,0.00,0,0,0,0,48878,50000,337,50000,0,0,0,0,0.00,0.00,0.00,0.00
2016-06-03 08:40:00,1,49379,0,0.00,0,2,1,2,47239,50000,1088,50000,0,0,0,0,0.00,0.00,0.00,0.00
2016-06-03 08:50:00,2,49540,0,0.00,2,2,0,2,47916,50000,815,50000,0,0,0,0,0.00,0.00,0.00,0.00
2016-06-03 09:00:00,2,49284,0,0.00,2,2,0,2,44197,50000,1743,50000,0,0,0,0,0.00,0.00,0.00,0.00
2016-06-03 09:10:00,2,48563,0,0.00,2,2,0,2,44344,50000,1662,48630,0,0,0,0,0.00,0.00,0.00,0.00
2016-06-03 09:20:00,2,42184,0,0.00,2,2,0,2,30143,50000,7580,43213,0,0,0,0,0.00,0.00,0.00,0.00
2016-06-03 09:30:00,2,48914,0,0.00,2,2,0,2,44014,50000,1860,50000,0,0,0,0,0.00,0.00,0.00,0.00
2016-06-03 09:40:00,2,49581,0,0.00,2,2,0,2,47854,50000,782,50000,0,0,0,0,0.00,0.00,0.00,0.00
2016-06-03 09:50:00,1,50000,0,0.00,0,2,1,1,50000,50000,0,50000,0,0,0,0,0.00,0.00,0.00,0.00
2016-06-03 10:00:00,2,49360,0,0.00,2,2,0,2,46363,50000,1165,50000,0,0,0,0,0.00,0.00,0.00,0.00
2016-06-03 10:10:00,2,49870,0,0.00,2,2,0,2,49105,50000,282,50000,0,0,0,0,0.00,0.00,0.00,0.00
2016-06-03 10:20:00,2,48201,0,0.00,2,2,0,2,44849,50000,2190,49180,0,0,0,0,0.00,0.00,0.00,0.00
2016-06-03 10:30:00,2,49905,0,0.00,2,2,0,2,49474,50000,191,50000,0,0,0,0,0.00,0.00,0.00,0.00
2016-06-03 10:40:00,2,48621,0,0.00,2,2,0,2,45764,50000,1511,49168,0,0,0,0,0.00,0.00,0.00,0.00
2016-06-03 10:50:00,2,49419,0,0.00,2,2,0,2,47205,50000,1013,50000,0,0,0,0,0.00,0.00,0.00,0.00
2016-06-03 11:00:00,2,50000,0,0.00,2,2,0,2,50000,50000,0,50000,0,0,0,0,0.00,0.00,0.00,0.00
2016-06-03 11:10:00,2,50000,0,0.00,2,2,0,2,50000,50000,0,50000,0,0,0,0,0.00,0.00,0.00,0.00
2016-06-03 11:20:00,2,49851,0,0.00,2,2,0,2,48506,50000,448,50000,0,0,0,0,0.00,0.00,0.00,0.00
2016-06-03 11:30:00,2,49466,0,0.00,2,2,0,2,46191,50000,1183,50000,0,0,0,0,0.00,0.00,0.00,0.00
2016-06-03 11:40:00,2,49657,0,0.00,2,2,0,2,47660,50000,741,50000,0,0,0,0,0.00,0.00,0.00,0.00
2016-06-03 11:50:00,2,48606,0,0.00,2,2,0,2,43370,50000,2223,50000,0,0,0,0,0.00,0.00,0.00,0.00
2016-06-03 12:00:00,2,50000,0,0.00,2,2,0,2,50000,50000,0,50000,0,0,0,0,0.00,0.00,0.00,0.00
2016-06-03 12:10:00,2,50000,0,0.00,2,2,0,2,50000,50000,0,50000,0,0,0,0,0.00,0.00,0.00,0.00
2016-06-03 12:20:00,2,49757,0,0.00,2,2,0,2,48544,50000,451,50000,0,0,0,0,0.00,0.00,0.00,0.00
2016-06-03 12:30:00,2,49910,0,0.00,2,2,0,2,49338,50000,201,50000,0,0,0,0,0.00,0.00,0.00,0.00
2016-06-03 12:40:00,2,49872,0,0.00,2,2,0,2,48723,50000,383,50000,0,0,0,0,0.00,0.00,0.00,0.00
2016-06-03 12:50:00,2,49121,0,0.00,2,2,0,2,45817,50000,1365,50000,0,0,0,0,0.00,0.00,0.00,0.00
2016-06-03 13:00:00,2,50000,0,0.00,2,2,0,2,50000,50000,0,50000,0,0,0,0,0.00,0.00,0.00,0.00
2016-06-03 13:10:00,2,50000,0,0.00,2,2,0,2,50000,50000,0,50000,0,0,0,0,0.00,0.00,0.00,0.00
2016-06-03 13:20:00,2,49833,0,0.00,2,2,0,2,48801,50000,372,50000,0,0,0,0,0.00,0.00,0.00,0.00
2016-06-03 13:30:00,2,50000,0,0.00,2,2,0,2,50000,50000,0,50000,0,0,0,0,0.00,0.00,0.00,0.00
2016-06-03 13:40:00,2,50000,0,0.00,2,2,0,2,50000,50000,0,50000,0,0,0,0,0.00,0.00,0.00,0.00
2016-06-03 13:50:00,2,46160,22,0.05,2,2,0,2,33092,50000,5590,49598,0,61,23,20,0.00,0.20,0.07,0.00
2016-06-03 14:00:00,2,49717,34,0.12,2,2,0,2,48152,50000,567,50000,0,61,28,51,0.00,0.75,0.23,0.00
2016-06-03 14:10:00,2,22778,30,0.30,2,2,0,2,14969,49156,10746,18418,0,61,30,30,0.00,0.95,0.40,0.00
2016-06-03 14:20:00,2,39483,51,0.08,2,2,0,2,18793,50000,12160,46994,41,61,4,51,0.00,0.20,0.06,0.05
2016-06-03 14:30:00,2,49531,8,0.00,2,2,0,2,47253,50000,851,50000,0,41,16,0,0.00,0.00,0.00,0.00
2016-06-03 14:40:00,2,50000,0,0.00,2,2,0,2,50000,50000,0,50000,0,0,0,0,0.00,0.00,0.00,0.00
2016-06-03 14:50:00,2,49974,0,0.00,2,2,0,2,49745,50000,76,50000,0,0,0,0,0.00,0.00,0.00,0.00
2016-06-03 15:00:00,2,49978,0,0.00,2,2,0,2,49890,50000,44,50000,0,0,0,0,0.00,0.00,0.00,0.00
2016-06-03 15:10:00,2,49976,0,0.00,2,2,0,2,49758,50000,73,50000,0,0,0,0,0.00,0.00,0.00,0.00
2016-06-03 15:20:00,2,49712,0,0.00,2,2,0,2,47117,50000,865,50000,0,0,0,0,0.00,0.00,0.00,0.00
2016-06-03 15:30:00,2,50000,0,0.00,2,2,0,2,50000,50000,0,50000,0,0,0,0,0.00,0.00,0.00,0.00
2016-06-03 15:40:00,2,49808,0,0.00,0,2,1,2,48793,50000,400,50000,0,0,0,0,0.00,0.00,0.00,0.00
2016-06-03 15:50:00,0,50000,0,0.00,0,0,0,0,50000,50000,0,50000,0,0,0,0,0.00,0.00,0.00,0.00
2016-06-03 16:00:00,0,50000,0,0.00,0,0,0,0,50000,50000,0,50000,0,0,0,0,0.00,0.00,0.00,0.00
2016-06-03 16:10:00,0,50000,0,0.00,0,0,0,0,50000,50000,0,50000,0,0,0,0,0.00,0.00,0.00,0.00
2016-06-03 16:20:00,2,50000,0,0.00,2,2,0,2,50000,50000,0,50000,0,0,0,0,0.00,0.00,0.00,0.00
2016-06-03 16:30:00,0,50000,0,0.00,0,2,1,0,50000,50000,0,50000,0,0,0,0,0.00,0.00,0.00,0.00
2016-06-03 16:40:00,0,50000,0,0.00,0,2,1,0,50000,50000,0,50000,0,0,0,0,0.00,0.00,0.00,0.00
2016-06-03 16:50:00,1,49974,0,0.00,0,2,1,2,49742,50000,77,50000,0,0,0,0,0.00,0.00,0.00,0.00
2016-06-03 17:00:00,0,48778,0,0.00,0,0,0,0,43895,50000,2061,50000,0,0,0,0,0.00,0.00,0.00,0.00
2016-06-03 17:10:00,1,41046,0,0.00,0,2,1,2,21594,50000,11133,49266,0,0,0,0,0.00,0.00,0.00,0.00
2016-06-03 17:20:00,2,31392,0,0.00,2,2,0,2,24497,44006,6105,30114,0,0,0,0,0.00,0.00,0.00,0.00
2016-06-03 17:30:00,2,49537,0,0.00,2,2,0,2,47185,50000,952,50000,0,0,0,0,0.00,0.00,0.00,0.00
2016-06-03 17:40:00,2,50000,0,0.00,2,2,0,2,50000,50000,0,50000,0,0,0,0,0.00,0.00,0.00,0.00
2016-06-03 17:50:00,0,49038,0,0.00,0,0,0,0,42961,50000,2167,50000,0,0,0,0,0.00,0.00,0.00,0.00
2016-06-03 18:00:00,0,50000,0,0.00,0,0,0,0,50000,50000,0,50000,0,0,0,0,0.00,0.00,0.00,0.00
2016-06-03 18:10:00,1,50000,0,0.00,0,2,1,0,50000,50000,0,50000,0,0,0,0,0.00,0.00,0.00,0.00
2016-06-03 18:20:00,2,50000,0,0.00,2,2,0,2,50000,50000,0,50000,0,0,0,0,0.00,0.00,0.00,0.00
2016-06-03 18:30:00,2,50000,0,0.00,2,2,0,2,50000,50000,0,50000,0,0,0,0,0.00,0.00,0.00,0.00
2016-06-03 18:40:00,2,50000,0,0.00,2,2,0,2,50000,50000,0,50000,0,0,0,0,0.00,0.00,0.00,0.00
2016-06-03 18:50:00,2,50000,0,0.00,2,2,0,2,50000,50000,0,50000,0,0,0,0,0.00,0.00,0.00,0.00
2016-06-03 19:00:00,2,50000,0,0.00,2,2,0,2,50000,50000,0,50000,0,0,0,0,0.00,0.00,0.00,0.00
2016-06-03 19:10:00,2,49963,0,0.00,2,2,0,2,49629,50000,111,50000,0,0,0,0,0.00,0.00,0.00,0.00
2016-06-03 19:20:00,2,50000,0,0.00,2,2,0,2,50000,50000,0,50000,0,0,0,0,0.00,0.00,0.00,0.00
2016-06-03 19:30:00,2,50000,0,0.00,2,2,0,2,50000,50000,0,50000,0,0,0,0,0.00,0.00,0.00,0.00
2016-06-03 19:40:00,2,50000,0,0.00,2,2,0,2,50000,50000,0,50000,0,0,0,0,0.00,0.00,0.00,0.00
2016-06-03 19:50:00,2,49978,0,0.00,2,2,0,2,49781,50000,66,50000,0,0,0,0,0.00,0.00,0.00,0.00
2016-06-03 20:00:00,2,49943,0,0.00,2,2,0,2,49429,50000,171,50000,0,0,0,0,0.00,0.00,0.00,0.00
2016-06-03 20:10:00,2,50000,0,0.00,2,2,0,2,50000,50000,0,50000,0,0,0,0,0.00,0.00,0.00,0.00
2016-06-03 20:20:00,2,49985,0,0.00,2,2,0,2,49849,50000,45,50000,0,0,0,0,0.00,0.00,0.00,0.00
2016-06-03 20:30:00,2,49915,0,0.00,2,2,0,2,49150,50000,255,50000,0,0,0,0,0.00,0.00,0.00,0.00
2016-06-03 20:40:00,2,50000,0,0.00,2,2,0,2,50000,50000,0,50000,0,0,0,0,0.00,0.00,0.00,0.00
2016-06-03 20:50:00,2,49968,21,0.03,2,2,0,2,49682,50000,95,50000,0,51,22,20,0.00,0.20,0.07,0.00
2016-06-03 21:00:00,2,49658,26,0.04,2,2,0,2,46841,50000,942,50000,0,51,26,26,0.00,0.20,0.06,0.00
2016-06-03 21:10:00,2,49440,0,0.00,2,2,0,2,46567,50000,1079,50000,0,0,0,0,0.00,0.00,0.00,0.00
2016-06-03 21:20:00,2,49836,0,0.00,2,2,0,2,48359,50000,492,50000,0,0,0,0,0.00,0.00,0.00,0.00
2016-06-03 21:30:00,2,50000,0,0.00,2,2,0,2,50000,50000,0,50000,0,0,0,0,0.00,0.00,0.00,0.00
2016-06-03 21:40:00,2,50000,0,0.00,2,2,0,2,50000,50000,0,50000,0,0,0,0,0.00,0.00,0.00,0.00
2016-06-03 21:50:00,2,50000,0,0.00,2,2,0,2,50000,50000,0,50000,0,0,0,0,0.00,0.00,0.00,0.00
2016-06-03 22:00:00,2,50000,0,0.00,2,2,0,2,50000,50000,0,50000,0,0,0,0,0.00,0.00,0.00,0.00
2016-06-03 22:10:00,2,50000,0,0.00,2,2,0,2,50000,50000,0,50000,0,0,0,0,0.00,0.00,0.00,0.00
2016-06-03 22:20:00,2,49654,0,0.00,2,2,0,2,46542,50000,1037,50000,0,0,0,0,0.00,0.00,0.00,0.00
2016-06-03 22:30:00,2,50000,0,0.00,2,2,0,2,50000,50000,0,50000,0,0,0,0,0.00,0.00,0.00,0.00
2016-06-03 22:40:00,2,50000,0,0.00,2,2,0,2,50000,50000,0,50000,0,0,0,0,0.00,0.00,0.00,0.00
2016-06-03 22:50:00,2,50000,0,0.00,2,2,0,2,50000,50000,0,50000,0,0,0,0,0.00,0.00,0.00,0.00
2016-06-03 23:00:00,2,49267,0,0.00,2,2,0,2,46557,50000,1158,50000,0,0,0,0,0.00,0.00,0.00,0.00
2016-06-03 23:10:00,2,50000,0,0.00,2,2,0,2,50000,50000,0,50000,0,0,0,0,0.00,0.00,0.00,0.00
2016-06-03 23:20:00,2,49683,0,0.00,2,2,0,2,48387,50000,536,50000,0,0,0,0,0.00,0.00,0.00,0.00
2016-06-03 23:30:00,2,49963,0,0.00,2,2,0,2,49627,50000,112,50000,0,0,0,0,0.00,0.00,0.00,0.00
2016-06-03 23:40:00,2,50000,0,0.00,2,2,0,2,50000,50000,0,50000,0,0,0,0,0.00,0.00,0.00,0.00
2016-06-03 23:50:00,2,49821,0,0.00,2,2,0,2,48800,50000,383,50000,0,0,0,0,0.00,0.00,0.00,0.00
